KK4KTV-13 Weather Reports


time (UTC)temp
F
wind
direction
speed
knots
gust
knots
rain 1hr
in
rain 24hr
in
rain mn
in
humidity
%
barometer
mb
20260903090109 70 262 0.0 0.0 0.00 0.00 0.00 99 1017.2
20260903085608 70 262 0.0 0.0 0.00 0.00 0.00 99 1017.2
20260903085103 70 262 0.0 0.0 0.00 0.00 0.00 99 1017.2
20260903084601 70 300 0.0 0.0 0.00 0.00 0.00 99 1017.1
20260903084056 70 261 0.0 0.0 0.00 0.00 0.00 99 1017.2
20260903083552 70 246 0.0 0.0 0.00 0.00 0.00 99 1017.2
20260903083052 70 255 0.0 0.0 0.00 0.00 0.00 99 1017.1
20260903082546 69 256 0.0 0.0 0.00 0.00 0.00 99 1017.0
20260903082041 69 256 0.0 0.0 0.00 0.00 0.00 99 1016.9
20260903081537 69 256 0.0 0.0 0.00 0.00 0.00 99 1017.1
20260903081032 69 256 0.0 0.0 0.00 0.00 0.00 99 1017.0
20260903080529 69 255 0.0 0.0 0.00 0.00 0.00 99 1017.0
20260903080025 69 255 0.0 0.0 0.00 0.00 0.00 99 1016.9
20260903075520 69 254 0.0 0.0 0.00 0.00 0.00 99 1017.0
20260903075015 69 254 0.0 0.0 0.00 0.00 0.00 99 1016.9
20260903074514 69 254 0.0 0.0 0.00 0.00 0.00 99 1016.8
20260903074009 69 254 0.0 0.0 0.00 0.00 0.00 99 1016.8
20260903073504 69 254 0.0 0.0 0.00 0.00 0.00 99 1016.9
20260903073000 70 254 0.0 0.0 0.00 0.00 0.00 99 1016.8
20260903072456 69 255 0.0 0.0 0.00 0.00 0.00 99 1016.9
20260903071952 69 255 0.0 0.0 0.00 0.00 0.00 99 1017.0
20260903071448 69 255 0.0 0.0 0.00 0.00 0.00 99 1016.9
20260903070943 69 255 0.0 0.0 0.00 0.00 0.00 99 1016.9
20260903070438 70 255 0.0 0.0 0.00 0.00 0.00 99 1016.9
20260903065932 69 255 0.0 0.0 0.00 0.00 0.00 99 1016.9
20260903065427 69 255 0.0 0.0 0.00 0.00 0.00 99 1016.8
20260903064926 70 255 0.0 0.0 0.00 0.00 0.00 99 1016.9
20260903064421 70 255 0.0 0.0 0.00 0.00 0.00 99 1016.9
20260903063917 70 255 0.0 0.0 0.00 0.00 0.00 99 1016.9
20260903063412 71 255 0.0 0.0 0.00 0.00 0.00 99 1017.0
20260903062908 70 255 0.0 0.0 0.00 0.00 0.00 99 1016.9
20260903062407 70 255 0.0 0.0 0.00 0.00 0.00 99 1016.9
20260903061903 70 255 0.0 0.0 0.00 0.00 0.00 99 1016.6
20260903061402 70 254 0.0 0.0 0.00 0.00 0.00 99 1016.9
20260903060858 71 254 0.0 0.0 0.00 0.00 0.00 99 1016.7
20260903060353 70 254 0.0 0.0 0.00 0.00 0.00 99 1016.7
20260903055851 70 255 0.0 0.0 0.00 0.00 0.00 99 1016.9
20260903055349 70 255 0.0 0.0 0.00 0.00 0.00 99 1016.8
20260903054844 70 255 0.0 0.0 0.00 0.00 0.00 99 1017.1
20260903054343 71 255 0.0 0.0 0.00 0.00 0.00 99 1017.0
20260903053840 71 255 0.0 0.0 0.00 0.00 0.00 99 1017.0
20260903053335 71 253 0.0 0.0 0.00 0.00 0.00 99 1016.9
20260903052831 71 253 0.0 0.0 0.00 0.00 0.00 99 1017.0
20260903052326 71 253 0.0 0.0 0.00 0.00 0.00 99 1016.9
20260903051822 72 253 0.0 0.0 0.00 0.00 0.00 99 1017.1
20260903051317 72 253 0.0 0.0 0.00 0.00 0.00 99 1017.0
20260903050812 72 253 0.0 0.0 0.00 0.00 0.00 99 1017.1
20260903050312 71 253 0.0 0.0 0.00 0.00 0.00 99 1017.0
20260903045806 71 253 0.0 0.0 0.00 0.00 0.00 99 1017.1
20260903045306 71 253 0.0 0.0 0.00 0.00 0.00 99 1017.0
20260903044758 71 254 0.0 0.0 0.00 0.00 0.00 99 1016.8
20260903044253 71 253 0.0 0.0 0.00 0.00 0.00 99 1016.9
20260903043750 71 253 0.0 0.0 0.00 0.00 0.00 99 1017.1
20260903043250 72 253 0.0 0.0 0.00 0.00 0.00 99 1017.0
20260903042749 71 253 0.0 0.0 0.00 0.00 0.00 99 1017.1
20260903042245 71 253 0.0 0.0 0.00 0.00 0.00 98 1016.8
20260903041741 71 253 0.0 0.0 0.00 0.00 0.00 98 1017.0
20260903041237 71 253 0.0 0.0 0.00 0.00 0.00 98 1017.0
20260903040736 71 253 0.0 0.0 0.00 0.00 0.00 98 1017.0
20260903040231 72 253 0.0 0.0 0.00 0.00 0.00 98 1017.0
20260903035727 72 253 0.0 0.0 0.00 0.00 0.00 98 1017.0
20260903035223 71 253 0.0 0.0 0.00 0.00 0.00 98 1017.1
20260903034722 72 253 0.0 0.0 0.00 0.00 0.00 98 1017.2
20260903034218 72 253 0.0 0.0 0.00 0.00 0.00 98 1017.2
20260903033714 72 253 0.0 0.0 0.00 0.00 0.00 98 1017.1
20260903033214 72 253 0.0 0.0 0.00 0.00 0.00 97 1017.1
20260903032708 72 253 0.0 0.0 0.00 0.00 0.00 98 1017.2
20260903032204 72 253 0.0 0.0 0.00 0.00 0.00 97 1017.1
20260903031659 72 253 0.0 0.0 0.00 0.00 0.00 97 1017.1
20260903031153 73 253 0.0 0.0 0.00 0.00 0.00 97 1017.1
20260903030649 73 253 0.0 0.0 0.00 0.00 0.00 97 1017.1
20260903030144 73 253 0.0 0.0 0.00 0.00 0.00 97 1017.1
20260903025640 73 253 0.0 0.0 0.00 0.00 0.00 97 1017.4
20260903025135 73 253 0.0 0.0 0.00 0.00 0.00 96 1017.1
20260903024630 73 253 0.0 0.0 0.00 0.00 0.00 97 1017.3
20260903024124 73 253 0.0 0.0 0.00 0.00 0.00 97 1017.2
20260903023620 73 253 0.0 0.0 0.00 0.00 0.00 96 1017.1
20260903023120 73 253 0.0 0.0 0.00 0.00 0.00 96 1017.3
20260903022615 73 253 0.0 0.0 0.00 0.00 0.00 96 1017.3
20260903022114 74 253 0.0 0.0 0.00 0.00 0.00 96 1017.1
20260903021608 74 253 0.0 0.0 0.00 0.00 0.00 96 1017.4
20260903021103 74 253 0.0 0.0 0.00 0.00 0.00 95 1017.3
20260903020558 74 253 0.0 0.0 0.00 0.00 0.00 96 1017.3
20260903020053 74 253 0.0 0.0 0.00 0.00 0.00 95 1017.2
20260903015548 75 253 0.0 0.0 0.00 0.00 0.00 95 1017.1
20260903015038 75 253 0.0 0.0 0.00 0.00 0.00 95 1017.2
20260903014537 75 253 0.0 0.0 0.00 0.00 0.00 94 1017.1
20260903014032 75 253 0.0 0.0 0.00 0.00 0.00 94 1017.2
20260903013531 75 253 0.0 0.0 0.00 0.00 0.00 93 1017.0
20260903013026 76 252 0.0 0.9 0.00 0.00 0.00 93 1016.9
20260903012520 75 254 0.0 0.0 0.00 0.00 0.00 94 1017.0
20260903012019 75 254 0.0 0.0 0.00 0.00 0.00 94 1016.7
20260903011519 76 254 0.0 0.0 0.00 0.00 0.00 94 1016.7
20260903011014 76 253 0.0 0.0 0.00 0.00 0.00 93 1016.7
20260903010509 76 254 0.0 0.0 0.00 0.00 0.00 92 1016.6
20260903010007 77 254 0.0 0.0 0.00 0.00 0.00 92 1016.7
20260903005502 77 249 0.0 0.0 0.00 0.00 0.00 91 1016.4
20260903004958 77 249 0.0 0.0 0.00 0.00 0.00 90 1016.6
20260903004458 78 249 0.0 0.0 0.00 0.00 0.00 89 1016.6
20260903003954 78 249 0.0 0.0 0.00 0.00 0.00 90 1016.4
20260903003449 79 249 0.0 0.0 0.00 0.00 0.00 90 1016.4
20260903002944 80 249 0.0 0.0 0.00 0.00 0.00 88 1016.4
20260903002444 80 249 0.0 0.0 0.00 0.00 0.00 88 1016.6
20260903001944 81 249 0.0 0.0 0.00 0.00 0.00 87 1016.4
20260903001444 82 249 0.0 0.0 0.00 0.00 0.00 86 1016.3
20260903000938 82 249 0.0 0.0 0.00 0.00 0.00 84 1016.4
20260903000434 83 249 0.0 0.0 0.00 0.00 0.00 83 1016.4
20260902235931 85 249 0.0 0.0 0.00 0.00 0.00 81 1016.3
20260902235427 86 248 0.0 0.0 0.00 0.00 0.00 77 1016.4
20260902234926 88 248 0.0 0.0 0.00 0.00 0.00 72 1016.1
20260902234421 89 248 0.0 0.0 0.00 0.00 0.00 73 1016.3
20260902233920 89 248 0.0 0.0 0.00 0.00 0.00 74 1016.5
20260902233414 89 248 0.0 0.0 0.00 0.00 0.00 72 1016.6
20260902232914 88 248 0.0 0.9 0.00 0.00 0.00 74 1016.5
20260902232403 89 246 0.0 0.9 0.00 0.00 0.00 71 1016.4
20260902231857 91 280 0.9 0.9 0.00 0.00 0.00 65 1016.4
20260902231352 95 284 0.0 0.0 0.00 0.00 0.00 62 1016.5
20260902230847 94 285 0.0 0.0 0.00 0.00 0.00 63 1016.5
20260902230346 92 225 0.0 0.9 0.00 0.00 0.00 60 1016.5
20260902225840 98 317 0.9 0.9 0.00 0.00 0.00 57 1016.4
20260902225336 98 317 0.0 0.0 0.00 0.00 0.00 56 1016.6
20260902224834 98 318 0.0 0.0 0.00 0.00 0.00 55 1016.4
20260902224329 99 318 0.0 0.0 0.00 0.00 0.00 51 1016.6
20260902223825 98 318 0.0 0.0 0.00 0.00 0.00 51 1016.5
20260902223320 97 318 0.0 0.9 0.00 0.00 0.00 52 1016.5
20260902222819 97 318 0.0 0.0 0.00 0.00 0.00 54 1016.5
20260902222312 98 300 0.0 0.0 0.00 0.00 0.00 47 1016.5
20260902221806 97 300 0.0 0.9 0.00 0.00 0.00 45 1016.7
20260902221306 96 316 0.0 0.9 0.00 0.00 0.00 49 1016.5
20260902220801 97 299 0.9 1.7 0.00 0.00 0.00 49 1016.8
20260902220255 95 295 0.0 0.9 0.00 0.00 0.00 54 1016.7
20260902215751 97 288 0.9 1.7 0.00 0.00 0.00 47 1016.7
20260902215246 97 304 0.0 0.0 0.00 0.00 0.00 49 1016.9
20260902214742 97 290 0.9 1.7 0.00 0.00 0.00 50 1016.6
20260902214240 98 316 0.9 1.7 0.00 0.00 0.00 47 1016.8
20260902213736 97 265 0.0 0.0 0.00 0.00 0.00 42 1016.7
20260902213236 96 270 1.7 1.7 0.00 0.00 0.00 47 1016.7
20260902212735 97 190 1.7 1.7 0.00 0.00 0.00 43 1016.8
20260902212232 96 329 0.0 0.9 0.00 0.00 0.00 49 1016.8
20260902211728 99 318 0.9 1.7 0.00 0.00 0.00 44 1016.8
20260902211223 99 287 0.0 0.0 0.00 0.00 0.00 48 1017.0
20260902210718 97 287 0.0 1.7 0.00 0.00 0.00 48 1016.9
20260902210214 97 333 1.7 1.7 0.00 0.00 0.00 41 1016.9
20260902205711 95 289 0.0 1.7 0.00 0.00 0.00 48 1016.9
20260902205207 96 303 1.7 2.6 0.00 0.00 0.00 53 1016.9
20260902204702 98 284 0.9 2.6 0.00 0.00 0.00 47 1017.0
20260902204156 98 271 0.0 0.9 0.00 0.00 0.00 43 1017.0
20260902203652 96 197 0.9 2.6 0.00 0.00 0.00 43 1017.1
20260902203151 96 268 1.7 2.6 0.00 0.00 0.00 43 1017.1
20260902202647 96 251 2.6 5.2 0.00 0.00 0.00 44 1017.1
20260902202143 98 299 0.9 1.7 0.00 0.00 0.00 49 1017.2
20260902201639 97 296 1.7 2.6 0.00 0.00 0.00 41 1017.2
20260902201138 97 278 0.0 2.6 0.00 0.00 0.00 43 1017.3
20260902200633 98 224 0.9 1.7 0.00 0.00 0.00 44 1017.2
20260902200129 95 295 0.0 0.9 0.00 0.00 0.00 44 1017.4
20260902195620 95 19 0.9 1.7 0.00 0.00 0.00 49 1017.5
20260902195119 95 265 0.0 0.0 0.00 0.00 0.00 48 1017.4
20260902194618 95 306 0.0 0.0 0.00 0.00 0.00 51 1017.4
20260902194114 96 319 0.0 0.0 0.00 0.00 0.00 48 1017.5
20260902193610 96 301 0.0 0.0 0.00 0.00 0.00 45 1017.5
20260902193109 96 252 2.6 2.6 0.00 0.00 0.00 45 1017.7
20260902192607 97 256 3.5 3.5 0.00 0.00 0.00 44 1017.6
20260902192106 97 266 0.0 2.6 0.00 0.00 0.00 43 1017.9
20260902191601 97 270 0.0 1.7 0.00 0.00 0.00 42 1017.9
20260902191055 97 271 0.0 1.7 0.00 0.00 0.00 51 1018.1
20260902190551 96 230 0.9 0.9 0.00 0.00 0.00 44 1018.1
20260902190046 96 295 0.9 2.6 0.00 0.00 0.00 56 1017.7
20260902185542 93 306 0.0 1.7 0.00 0.00 0.00 49 1018.1
20260902185038 94 271 1.7 2.6 0.00 0.00 0.00 48 1018.2
20260902184532 93 264 0.0 0.9 0.00 0.00 0.00 50 1018.4
20260902184028 95 231 1.7 2.6 0.00 0.00 0.00 49 1018.1
20260902183524 92 300 0.0 0.9 0.00 0.00 0.00 53 1018.3
20260902183020 93 308 1.7 1.7 0.00 0.00 0.00 51 1018.2
20260902182516 91 295 0.0 1.7 0.00 0.00 0.00 59 1018.4
20260902182012 91 281 0.9 3.5 0.00 0.00 0.00 55 1018.4
20260902181509 93 297 1.7 5.2 0.00 0.00 0.00 53 1018.3
20260902181003 91 262 0.9 1.7 0.00 0.00 0.00 55 1018.3
20260902180502 93 177 3.5 3.5 0.00 0.00 0.00 48 1018.4
20260902175959 94 277 0.0 1.7 0.00 0.00 0.00 51 1018.4
20260902175458 95 343 1.7 2.6 0.00 0.00 0.00 56 1018.4
20260902174954 95 289 0.0 0.9 0.00 0.00 0.00 54 1018.4
20260902174451 95 231 1.7 2.6 0.00 0.00 0.00 49 1018.6
20260902173946 94 231 0.9 2.6 0.00 0.00 0.00 53 1018.8
20260902173445 95 207 1.7 2.6 0.00 0.00 0.00 52 1018.8
20260902172941 94 307 0.0 0.9 0.00 0.00 0.00 47 1018.8
20260902172440 94 271 0.9 2.6 0.00 0.00 0.00 56 1019.0
20260902171935 93 174 2.6 3.5 0.00 0.00 0.00 53 1019.1
20260902171431 93 257 1.7 3.5 0.00 0.00 0.00 54 1019.1
20260902170927 93 257 1.7 1.7 0.00 0.00 0.00 52 1019.2
20260902170422 92 285 0.9 1.7 0.00 0.00 0.00 55 1019.2
20260902165918 93 259 0.0 0.0 0.00 0.00 0.00 55 1019.3
20260902165417 93 279 0.0 1.7 0.00 0.00 0.00 60 1019.3
20260902164911 94 255 0.9 0.9 0.00 0.00 0.00 60 1019.2
20260902164406 94 219 0.9 1.7 0.00 0.00 0.00 57 1019.5
20260902163905 94 312 0.0 0.0 0.00 0.00 0.00 52 1019.5
20260902163400 93 254 0.9 2.6 0.00 0.00 0.00 56 1019.5
20260902162858 93 263 1.7 5.2 0.00 0.00 0.00 58 1019.7
20260902162354 93 232 2.6 2.6 0.00 0.00 0.00 55 1019.9
20260902161854 93 205 1.7 2.6 0.00 0.00 0.00 57 1019.8
20260902161349 94 283 0.0 1.7 0.00 0.00 0.00 58 1019.8
20260902160845 93 301 0.0 0.9 0.00 0.00 0.00 54 1019.8
20260902160340 92 282 0.0 1.7 0.00 0.00 0.00 63 1019.7
20260902155838 92 259 0.9 3.5 0.00 0.00 0.00 63 1019.9
20260902155337 93 286 0.0 0.0 0.00 0.00 0.00 57 1019.9
20260902154832 91 270 0.9 1.7 0.00 0.00 0.00 58 1020.0
20260902154328 91 198 2.6 2.6 0.00 0.00 0.00 63 1020.0
20260902153827 91 253 1.7 1.7 0.00 0.00 0.00 62 1019.9
20260902153326 91 253 0.9 2.6 0.00 0.00 0.00 65 1019.8
20260902152822 91 186 1.7 2.6 0.00 0.00 0.00 60 1020.0
20260902152318 90 262 0.9 1.7 0.00 0.00 0.00 64 1019.9
20260902151813 90 192 1.7 2.6 0.00 0.00 0.00 62 1019.9
20260902151308 90 270 0.9 3.5 0.00 0.00 0.00 64 1020.0
20260902150803 89 204 0.9 1.7 0.00 0.00 0.00 67 1019.7
20260902150300 89 226 1.7 2.6 0.00 0.00 0.00 64 1019.7
20260902145759 88 293 0.9 2.6 0.00 0.00 0.00 65 1019.9
20260902145255 87 254 0.9 2.6 0.00 0.00 0.00 65 1019.8
20260902144750 87 269 1.7 1.7 0.00 0.00 0.00 68 1019.8
20260902144246 87 248 1.7 1.7 0.00 0.00 0.00 67 1019.5
20260902143746 86 272 1.7 1.7 0.00 0.00 0.00 71 1019.6
20260902143241 87 278 0.0 1.7 0.00 0.00 0.00 74 1019.7
20260902142736 87 269 0.0 1.7 0.00 0.00 0.00 71 1019.7
20260902142232 87 248 0.9 0.9 0.00 0.00 0.00 71 1019.7
20260902141732 87 195 1.7 2.6 0.00 0.00 0.00 69 1019.7
20260902141228 85 228 0.0 1.7 0.00 0.00 0.00 74 1019.6
20260902140723 85 228 0.9 0.9 0.00 0.00 0.00 73 1019.6
20260902140218 84 261 0.9 0.9 0.00 0.00 0.00 77 1019.6
20260902135717 84 252 0.0 0.0 0.00 0.00 0.00 75 1019.6
20260902135213 85 250 0.0 0.0 0.00 0.00 0.00 75 1019.7
20260902134712 84 255 0.0 0.0 0.00 0.00 0.00 73 1019.9
20260902134208 84 264 0.0 0.9 0.00 0.00 0.00 74 1019.8
20260902133703 84 274 0.0 0.0 0.00 0.00 0.00 75 1019.8
20260902133202 83 287 0.0 0.0 0.00 0.00 0.00 74 1019.9
20260902132652 82 287 0.0 0.0 0.00 0.00 0.00 78 1020.0
20260902132148 82 210 0.0 0.9 0.00 0.00 0.00 78 1019.7
20260902131643 82 33 0.0 0.0 0.00 0.00 0.00 77 1019.7
20260902131139 81 38 0.0 0.0 0.00 0.00 0.00 78 1019.7
20260902130635 79 38 0.0 0.0 0.00 0.00 0.00 82 1019.7
20260902130130 79 41 0.0 0.0 0.00 0.00 0.00 83 1019.5
20260902125625 78 74 0.0 0.0 0.00 0.00 0.00 84 1019.8
20260902125125 78 68 0.0 0.0 0.00 0.00 0.00 85 1019.7
20260902124623 77 36 0.0 0.0 0.00 0.00 0.00 85 1019.6
20260902124122 75 38 0.0 0.0 0.00 0.00 0.00 89 1019.8
20260902123618 73 38 0.0 0.0 0.00 0.00 0.00 92 1019.5
20260902123113 73 36 0.0 0.0 0.00 0.00 0.00 94 1019.6
20260902122612 72 38 0.0 0.0 0.00 0.00 0.00 97 1019.7
20260902122108 71 39 0.0 0.0 0.00 0.00 0.00 98 1019.7
20260902121603 71 72 0.0 0.0 0.00 0.00 0.00 99 1019.6
20260902121057 70 72 0.0 0.0 0.00 0.00 0.00 99 1019.6
20260902120554 70 72 0.0 0.0 0.00 0.00 0.00 99 1019.7
20260902120050 70 72 0.0 0.0 0.00 0.00 0.00 99 1019.6
20260902115545 70 72 0.0 0.0 0.00 0.00 0.00 99 1019.3
20260902115041 70 72 0.0 0.0 0.00 0.00 0.00 99 1019.4
20260902114536 69 72 0.0 0.0 0.00 0.00 0.00 99 1019.1
20260902114031 68 72 0.0 0.0 0.00 0.00 0.00 99 1019.1
20260902113527 67 72 0.0 0.0 0.00 0.00 0.00 99 1019.0
20260902113021 67 72 0.0 0.0 0.00 0.00 0.00 99 1019.0
20260902112517 67 72 0.0 0.0 0.00 0.00 0.00 99 1018.9
20260902112014 67 72 0.0 0.0 0.00 0.00 0.00 99 1018.9
20260902111510 67 73 0.0 0.0 0.00 0.00 0.00 99 1018.9
20260902111005 68 73 0.0 0.0 0.00 0.00 0.00 99 1018.8
20260902110501 68 73 0.0 0.0 0.00 0.00 0.00 99 1018.7
20260902105955 66 4 0.0 0.0 0.00 0.00 0.00 99 1018.6
20260902105450 66 4 0.0 0.0 0.00 0.00 0.00 99 1018.6
20260902104945 66 4 0.0 0.0 0.00 0.00 0.00 99 1018.6
20260902104441 67 4 0.0 0.0 0.00 0.00 0.00 99 1018.6
20260902103940 67 4 0.0 0.0 0.00 0.00 0.00 99 1018.5
20260902103436 67 4 0.0 0.0 0.00 0.00 0.00 99 1018.5
20260902102930 67 4 0.0 0.0 0.00 0.00 0.00 99 1018.6
20260902102428 67 4 0.0 0.0 0.00 0.00 0.00 99 1018.3
20260902101924 67 4 0.0 0.0 0.00 0.00 0.00 99 1018.5
20260902101418 67 4 0.0 0.0 0.00 0.00 0.00 99 1018.5
20260902100917 67 4 0.0 0.0 0.00 0.00 0.00 99 1018.3
20260902100412 67 4 0.0 0.0 0.00 0.00 0.00 99 1018.4
20260902095906 67 4 0.0 0.0 0.00 0.00 0.00 99 1018.3
20260902095401 67 4 0.0 0.0 0.00 0.00 0.00 99 1018.6
20260902094901 67 4 0.0 0.0 0.00 0.00 0.00 99 1018.4
20260902094357 68 4 0.0 0.0 0.00 0.00 0.00 99 1018.4
20260902093857 68 4 0.0 0.0 0.00 0.00 0.00 99 1018.4
20260902093352 67 4 0.0 0.0 0.00 0.00 0.00 99 1018.2
20260902092850 68 4 0.0 0.0 0.00 0.00 0.00 99 1018.3
20260902092346 68 4 0.0 0.0 0.00 0.00 0.00 99 1018.3
20260902091840 68 4 0.0 0.0 0.00 0.00 0.00 99 1018.3
20260902091336 68 4 0.0 0.0 0.00 0.00 0.00 99 1018.1
20260902090833 69 4 0.0 0.0 0.00 0.00 0.00 99 1018.3